Weather in Annovka

Russia / Voronezh Oblast     50°59′17″N   40°18′24″E
temp.,
°C
wind,
m/s
gust,
m/s
humid.,
%
clouds,
%
prec.,
mm/h
press.,
hPa
HPBL,
m
1 march, mon
mon100:00−3ne239494 0.2 1019117
03:00−4nne359686 0.2 1021161
06:00−5nne249285 0.0 1023191
09:00−4nne348686 0.0 1025316
12:00−2n347589 0.0 1026654
15:00−1nnw347491 0.0 1027730
18:00−1wnw2479100 0.0 1026252
21:00−3w348787 0.0 102798
2 march, tue
tue200:00−1w498288 0.0 1026574
03:00−1wsw6108094 0.0 1024748
06:00−2wsw61382100 0.0 1021553
09:00−1wsw71385100 0.0 1019698
12:00+1wsw71284100 0.0 1016900
15:00+1w71391100 0.0 1013681
18:000w61198100 1.1 1011550
21:00+1wnw51098100 1.7 1011483
3 march, wed
wed300:000nnw4898100 1.1 1010378
03:00−1nnw4997100 1.5 1011425
06:00−2nw5119051 0.0 1013397
09:00−1nnw7118174 0.1 10151177
12:00−1nnw7107097 0.2 10161426
15:00−1nw8116698 0.3 10181290
18:00−2nw4107477 0.0 1019607
21:00−2wnw4108470 0.0 1020463
4 march, thu
thu400:00−1wnw598499 0.1 1020780
03:00−1wsw498398 0.1 1019477
06:00−1wsw51182100 0.0 1018506
09:00−1wsw7128793 0.0 1017610
12:00+3wsw8127118 0.0 1014928
15:00+4wsw8146145 0.0 1012969
18:00+2sw7166323 0.0 1009636
21:00+2wsw8186914 0.0 1009745
5 march, fri
fri500:00+2wsw7177570 0.0 1008592
03:00+2wsw7148285 0.0 1007542
06:00+2wsw61391100 0.0 1008467
09:00+2wsw3798100 0.4 1010255
12:00+2wsw3797100 0.8 1011389
15:00+1wsw3798100 1.4 1012295
18:00+1w2598100 0.6 1012233
21:000s2297100 0.6 101350